User: anonymous   Login
Location: Unspecified
(0.0000°N, 0.0000°E)
Time: 11:11:46
(UTC+01:00)
Language:

Gurwin Techsat 1B - Orbit

View from above orbital plane
View from above orbital plane
View from above satellite
View from above satellite

Ground track
Ground track

The orbit data is extracted from the following two-line orbital elements,

1 25397U 98043D   16038.12969921  .00000013  00000-0  24362-4 0  9992
2 25397  98.5523 346.5792 0001798  42.5427 317.5891 14.23581578913219
Epoch (UTC): 07 February 2016 03:06:46
Eccentricity: 0.0001798
inclination: 98.5523°
perigee height: 812 km
apogee height: 814 km
right ascension of ascending node: 346.5792°
argument of perigee: 42.5427°
revolutions per day: 14.23581578
mean anomaly at epoch: 317.5891°
orbit number at epoch: 91321

The dashed part of the orbit path shows where the satellite is in the earth's shadow,  

DLR